Wind_Speed
4 4 2 5 6 6 6 6 8 6 5 4 1 1 2 3 4 5 4 6 3 3 8 6 8 10 10 9 5 4 1 7 6 4 5 6 7 8 7 7 7 8 6 8 15 18 15 16 18 20 21 21 22 23 24 24 23 23 23 22 22 22 22 23 26 28 29 28 27 26 27 30 31 31 31 31 31 29 28 26 25 25 25 26 25 24
3 5 5 7 8 7 6 6 7 5 4 2 1 1 4 2 4 7 4 6 2 4 7 3 5 9 9 7 6 3 3 7 9 10 9 9 9 7 6 8 7 6 5 6 8 9 8 11 15 18 20 22 23 23 23 22 23 23 23 23 23 23 24 25 27 29 30 31 31 29 31 33 33 32 31 31 31 30 28 26 24 24 24 25 24 24
1 4 7 7 7 5 4 5 6 5 5 3 2 1 2 3 4 7 4 5 1 4 6 2 6 7 6 5 6 5 2 6 7 10 11 12 11 7 7 7 6 6 5 5 5 4 8 12 16 19 20 23 24 22 21 21 23 23 23 23 23 23 25 25 26 28 31 31 30 28 27 28 27 26 27 27 27 26 25 24 23 23 24 23 23 23
2 5 8 6 6 5 3 4 7 5 3 3 3 3 2 4 1 3 5 6 4 1 3 3 4 4 5 5 6 6 6 6 4 4 3 4 6 6 3 2 4 4 4 5 5 7 10 14 16 18 20 22 20 18 19 21 23 23 23 23 23 23 23 23 24 26 28 27 26 24 22 22 21 19 19 19 20 21 21 21 21 22 23 23 22 22
6 6 4 6 7 7 4 3 6 5 1 2 4 5 3 4 4 5 4 6 6 4 2 6 4 5 4 6 5 6 7 9 9 7 6 6 4 4 5 7 7 6 6 6 7 8 9 11 15 17 18 18 16 16 19 24 25 25 24 24 23 23 22 22 21 21 21 22 23 21 18 18 17 14 14 14 14 17 19 20 21 21 22 21 20 20
8 5 5 7 5 5 5 4 4 7 3 3 4 8 7 6 6 4 4 5 5 5 4 6 4 4 4 6 5 6 7 10 10 9 9 8 7 5 5 6 7 7 6 6 7 8 8 9 12 14 14 15 14 15 20 25 25 24 25 25 24 23 22 21 21 19 16 17 21 21 18 17 16 14 14 16 16 18 19 21 21 21 20 20 19 19
4 4 6 7 6 5 5 5 4 7 5 2 5 8 9 7 5 3 2 2 2 1 3 5 5 2 5 6 6 6 6 8 10 11 11 9 7 5 4 5 6 8 7 7 7 7 9 10 11 11 13 16 15 15 20 23 23 23 23 23 23 22 20 20 23 23 18 15 18 20 20 20 19 18 18 19 20 20 21 20 20 19 19 19 18 18
4 5 5 6 6 5 5 4 5 8 7 3 6 7 8 7 6 5 3 3 2 3 4 4 4 3 3 4 5 6 4 8 12 12 11 10 9 9 7 5 4 5 6 7 7 7 9 11 12 14 18 20 16 16 22 24 23 24 24 24 23 20 18 19 22 27 25 21 20 21 21 21 21 21 20 20 20 20 21 20 19 18 18 18 17 18
4 6 7 7 5 4 5 5 7 9 6 7 7 6 7 7 7 6 5 3 0 1 3 6 2 4 2 5 5 6 4 8 12 11 11 11 11 10 10 9 8 6 5 4 5 5 7 11 15 19 21 19 16 18 23 24 24 26 25 25 24 22 21 21 23 27 30 28 26 25 23 22 20 19 19 19 19 20 21 20 19 18 17 17 17 17
2 5 7 7 5 5 7 6 10 11 6 8 5 5 4 3 4 4 5 4 3 4 2 7 1 3 3 5 5 6 4 6 7 7 8 9 10 11 10 10 10 8 7 6 5 4 4 10 15 19 19 15 14 14 15 19 23 25 24 22 23 24 25 25 26 28 29 29 28 28 26 25 21 19 18 18 19 20 20 19 19 19 18 17 17 17
3 1 4 5 5 7 8 6 9 14 10 3 3 4 4 4 4 4 3 4 4 1 5 7 1 5 1 4 3 3 3 3 4 5 7 8 10 10 10 10 9 8 7 6 6 6 4 4 10 15 15 8 6 5 4 8 14 18 20 18 19 25 28 28 27 28 27 26 27 28 28 27 23 20 18 19 20 20 20 19 19 19 19 18 18 17
4 1 2 3 6 6 4 3 6 10 7 4 3 4 3 1 4 4 4 4 4 2 6 6 2 7 2 3 2 3 3 5 6 6 7 8 10 9 9 10 9 8 7 7 6 5 4 2 2 6 6 7 15 12 7 4 6 9 13 15 17 22 25 23 23 25 27 25 25 26 25 24 22 20 19 19 20 21 21 21 20 19 19 18 19 19
4 2 3 4 4 5 5 1 1 3 3 4 4 5 4 1 2 1 3 1 3 3 4 4 2 4 1 1 2 3 4 7 7 6 6 7 9 9 10 10 9 9 8 8 7 6 5 5 6 7 9 12 14 10 9 10 11 9 10 14 18 21 21 18 17 19 22 23 24 23 22 19 17 15 16 18 20 21 21 21 20 20 20 20 20 20
3 5 4 2 4 3 7 4 2 3 4 6 5 5 5 3 3 1 2 0 2 3 4 3 1 2 1 1 1 2 4 5 6 7 6 7 9 10 10 9 7 8 8 7 7 6 6 6 8 11 12 12 11 11 10 10 11 10 9 12 17 22 22 19 15 13 15 17 16 13 11 12 13 16 19 19 18 19 20 20 20 20 20 19 20 20
2 4 3 4 3 2 7 7 6 7 6 4 4 6 5 5 4 3 3 3 3 2 2 2 1 2 2 1 1 3 3 3 6 7 6 8 9 8 8 8 8 8 7 6 7 7 7 8 10 10 12 13 12 12 9 6 9 11 10 11 14 17 18 17 14 14 13 9 8 6 6 10 18 23 23 20 18 18 20 22 23 21 19 19 20 20
4 4 7 5 3 3 6 5 5 8 5 2 2 6 3 5 5 3 3 5 4 2 2 2 1 0 1 3 3 3 3 4 6 7 7 8 8 8 9 9 9 8 8 7 7 8 9 11 13 13 13 13 12 12 9 7 11 14 14 13 13 13 13 13 11 10 8 3 5 13 17 18 19 19 19 19 20 19 19 20 22 22 20 21 21 20
3 4 7 3 2 4 7 6 5 6 5 1 2 4 3 4 7 5 2 1 3 4 0 0 3 1 1 3 2 4 6 6 7 7 7 8 8 9 8 8 8 8 8 8 8 8 10 12 15 16 16 16 14 13 12 10 11 14 15 15 14 14 13 12 12 9 9 7 9 16 21 20 18 18 20 22 22 20 18 18 20 20 20 22 21 20
4 3 6 1 3 6 4 5 2 2 5 5 3 5 2 3 5 4 2 2 4 4 2 1 3 3 2 2 3 5 7 7 7 6 7 7 8 8 7 7 7 7 7 8 8 9 10 13 16 17 18 19 19 17 16 12 10 11 12 13 14 16 15 13 14 15 13 13 15 17 21 21 19 21 24 24 22 21 19 19 21 21 21 22 22 21
3 1 7 3 3 4 2 5 3 3 3 4 5 4 4 3 1 1 2 2 2 3 1 3 1 3 3 2 4 8 8 8 6 6 6 7 7 6 7 8 9 9 8 8 9 8 9 13 15 17 19 20 20 19 17 14 12 12 11 11 12 15 14 12 14 17 14 14 17 18 20 20 19 23 26 24 22 21 20 21 22 22 21 22 22 21
3 2 5 5 2 1 3 3 3 2 3 4 4 2 2 3 4 2 2 3 4 3 1 2 1 2 3 2 4 8 9 8 7 5 5 6 7 7 7 8 8 8 7 7 8 8 9 12 14 15 16 17 18 18 18 17 15 15 14 13 12 13 12 10 12 14 13 13 16 17 19 20 20 21 23 23 22 20 20 22 23 22 22 23 22 22
2 3 2 5 4 1 1 1 6 7 3 2 3 1 1 1 2 2 1 2 4 4 3 3 1 4 3 2 2 6 8 8 8 6 4 5 7 8 7 7 7 7 7 8 8 8 10 12 13 14 14 15 17 19 20 19 18 17 17 16 14 12 11 10 11 13 13 14 16 18 20 21 22 21 21 22 21 20 20 23 23 22 21 22 21 21
1 3 3 3 4 2 2 5 5 8 6 4 3 3 3 3 4 3 0 1 2 4 4 5 2 4 3 1 1 4 7 8 8 7 5 5 7 7 7 7 7 7 8 8 7 8 9 12 13 14 15 16 17 19 20 20 20 20 19 17 15 13 11 11 11 13 15 16 18 21 22 23 24 23 21 21 22 22 20 22 24 23 21 21 21 21
3 4 3 2 1 2 5 6 1 6 9 7 3 2 3 4 5 5 3 3 1 3 2 4 3 3 3 2 5 5 7 8 8 6 5 5 6 6 6 7 7 8 8 8 8 8 10 12 13 15 16 17 18 18 18 18 18 19 20 19 18 17 15 14 13 13 16 18 19 22 24 24 23 21 19 22 25 24 20 21 24 24 24 24 23 23
2 4 3 1 2 4 5 5 5 5 8 6 3 3 3 1 3 5 5 3 3 3 2 4 2 2 1 4 6 6 8 10 8 6 5 4 5 5 6 6 7 7 8 8 8 8 10 13 14 16 17 18 18 19 19 19 19 19 20 20 21 20 18 17 15 15 17 18 20 23 24 23 21 19 19 22 25 24 22 23 25 26 26 25 24 24
1 1 3 3 2 3 4 4 5 5 4 4 2 4 3 1 4 4 2 3 3 3 4 5 2 2 1 5 7 7 9 10 8 6 6 5 5 6 6 6 7 7 8 8 7 8 10 12 14 15 15 16 18 20 21 22 21 20 20 21 22 21 20 18 16 15 15 17 19 21 22 21 19 17 19 22 24 24 24 25 25 26 27 26 24 23
3 2 3 5 5 3 2 2 2 0 2 3 3 5 5 3 5 4 3 4 2 2 3 4 4 2 3 6 7 7 8 9 8 6 6 5 6 6 6 6 7 7 8 8 8 8 9 10 12 14 15 16 18 19 22 24 24 23 22 23 24 23 21 19 16 14 14 16 17 17 17 18 16 16 18 22 24 25 25 25 25 26 27 26 24 22
4 3 2 5 5 5 5 3 2 2 4 2 3 5 5 4 2 4 4 3 5 4 2 1 6 8 7 7 7 7 6 8 7 5 4 5 6 6 6 6 6 6 7 7 7 8 8 9 11 14 16 17 19 20 23 26 27 25 23 25 26 26 24 21 16 14 13 13 14 16 16 17 17 16 19 21 22 22 23 24 25 27 27 26 25 24
5 4 3 4 5 2 2 3 4 5 5 4 3 5 6 5 5 6 4 2 5 6 1 3 8 11 8 6 6 6 5 7 6 5 4 4 5 5 6 6 7 8 8 8 8 9 9 8 10 13 15 17 20 22 24 27 27 25 24 25 26 27 27 25 19 15 14 13 13 15 15 16 17 16 17 19 20 20 21 23 26 28 28 27 27 26
6 3 3 4 7 8 6 6 7 8 6 6 6 5 6 7 8 7 3 2 1 4 5 8 10 8 6 6 5 5 5 6 6 5 4 4 4 5 6 7 8 8 9 10 10 8 8 7 9 12 16 18 20 21 22 25 26 26 26 26 27 27 27 25 21 18 16 15 14 14 14 14 15 16 17 20 23 24 24 26 28 28 28 28 28 27
5 3 3 4 7 8 8 6 5 8 7 6 8 8 6 8 10 10 6 4 5 5 8 13 12 6 4 5 5 5 5 4 5 6 5 5 5 6 7 7 7 7 8 9 9 8 7 9 12 16 18 19 21 21 22 23 24 26 28 29 28 28 27 25 22 20 18 16 15 13 13 13 14 17 18 22 26 26 27 29 29 29 27 27 29 28
4 3 1 3 6 6 7 6 6 7 9 8 9 9 7 6 8 8 6 6 8 7 9 12 10 5 2 4 6 5 4 4 5 6 6 6 6 7 7 7 7 7 8 8 9 9 10 12 15 17 18 19 21 22 23 23 24 25 28 29 29 28 27 25 23 21 18 16 14 11 11 13 15 18 21 24 27 28 29 31 30 29 27 25 28 29
4 4 1 4 5 1 2 4 5 6 9 9 8 9 9 7 5 5 4 4 3 8 12 10 5 3 4 5 6 5 4 6 6 5 6 5 6 7 7 7 7 7 8 9 10 11 11 12 14 15 16 18 21 22 23 23 23 24 26 27 27 27 26 25 24 23 20 16 13 7 9 13 15 20 23 24 26 27 30 32 30 28 25 25 28 29
3 5 3 3 4 2 1 1 3 3 4 4 4 6 5 3 5 6 6 6 4 6 9 5 3 5 6 6 5 5 5 6 5 4 5 5 5 6 6 6 7 7 8 8 9 10 10 11 13 15 16 18 20 21 22 22 22 22 23 23 25 26 26 26 25 25 23 20 16 9 5 12 17 23 24 24 25 26 28 29 27 26 26 28 30 30
2 5 4 2 4 3 1 3 3 2 1 1 3 4 2 3 8 8 6 6 6 5 5 5 6 7 6 5 5 6 5 5 4 5 5 4 4 4 4 6 7 7 8 8 7 8 10 13 15 17 18 19 20 20 20 21 21 21 22 23 25 26 27 27 26 26 26 24 20 13 4 8 17 24 25 24 24 25 25 24 24 25 28 32 32 30
4 4 3 2 3 4 1 3 2 1 2 1 2 3 4 7 11 13 10 8 8 9 10 10 9 7 6 6 6 6 6 5 5 6 5 5 4 4 4 6 7 7 7 7 7 9 12 15 17 18 20 20 19 19 20 22 22 22 22 23 25 27 27 27 28 28 28 27 23 16 7 3 11 19 24 25 25 24 23 23 24 24 27 31 32 31
5 4 3 3 3 3 2 2 2 2 1 0 2 3 4 4 6 9 9 7 6 7 9 10 8 8 8 7 6 6 6 6 6 5 4 4 5 5 4 5 6 6 6 7 8 10 13 15 16 17 18 19 19 20 21 21 21 20 22 24 26 27 28 29 30 30 29 28 26 20 12 9 10 13 21 27 27 26 24 24 24 23 24 28 31 31
6 5 4 3 1 2 3 2 1 1 1 1 0 1 2 2 2 1 3 3 2 3 7 9 9 9 8 7 6 5 5 4 4 4 3 4 5 5 5 6 6 6 7 9 10 11 13 14 15 16 17 18 20 21 21 20 20 20 23 26 27 28 30 31 31 30 29 28 27 23 16 13 14 15 20 26 28 27 26 26 25 24 25 28 30 31
5 4 5 3 1 2 4 2 1 2 3 3 3 2 2 1 3 2 2 3 2 4 7 10 11 10 9 8 6 5 3 1 2 2 3 4 5 5 5 6 8 8 10 12 13 14 15 15 15 16 17 19 21 21 20 20 20 21 24 26 27 28 31 32 31 30 29 28 26 24 20 16 18 17 19 23 25 26 26 26 26 26 27 29 30 31
7 4 4 5 2 2 4 3 2 3 2 2 3 1 1 1 2 1 2 2 3 6 7 9 11 10 9 8 7 5 2 1 1 1 2 3 4 5 5 6 9 10 12 13 13 14 15 15 16 18 20 21 21 20 20 19 21 23 24 25 27 29 31 30 29 28 28 27 25 25 23 20 20 21 20 21 22 25 27 27 27 26 26 27 30 31
6 5 4 4 3 3 4 2 1 1 1 1 1 2 3 3 2 1 1 1 4 7 7 8 10 9 8 7 5 3 1 1 2 2 2 3 4 6 6 6 8 11 12 14 14 14 15 17 19 21 22 22 20 19 19 20 22 24 23 24 27 29 28 27 27 27 27 26 26 25 24 23 22 22 23 24 24 26 28 28 29 28 27 26 29 32
4 4 2 4 4 3 4 2 0 1 1 1 2 4 4 3 0 2 2 2 5 7 6 8 9 8 6 5 3 1 1 2 4 4 3 3 4 6 7 8 10 11 12 14 15 16 17 18 20 22 22 21 20 20 19 20 23 23 23 25 27 26 24 25 28 29 29 28 26 26 25 24 22 22 23 25 27 28 29 28 28 27 26 25 27 31
2 2 2 2 3 3 3 3 0 2 1 1 2 4 3 1 1 2 1 3 6 6 5 6 6 6 5 4 4 4 4 5 6 5 4 4 4 5 8 10 11 12 13 14 16 18 18 19 21 22 22 22 22 21 21 22 22 22 22 25 25 23 22 25 28 29 30 29 28 27 26 24 23 22 22 23 25 27 27 27 25 23 22 22 24 27
1 1 2 2 2 2 3 3 1 1 0 1 2 2 1 0 2 3 4 5 6 7 7 6 5 6 7 7 6 6 6 6 6 5 4 4 4 6 8 10 11 12 13 15 16 17 18 19 20 21 21 21 22 22 22 24 23 22 23 23 21 21 24 28 29 30 31 31 30 28 26 25 24 23 22 21 23 25 25 25 25 24 22 21 21 24
1 1 2 1 1 1 3 3 2 2 2 2 1 1 2 2 3 6 6 5 5 6 6 6 6 6 7 9 8 7 7 6 5 4 4 4 4 7 9 10 12 13 14 16 17 17 18 19 19 19 19 20 21 22 22 23 23 24 25 23 19 19 23 27 30 32 32 31 30 28 27 26 24 23 22 22 22 24 24 24 24 24 22 21 21 23
0 2 3 2 2 3 2 2 1 2 1 1 2 3 5 7 6 7 8 7 6 5 5 6 7 7 7 9 8 6 6 6 5 4 4 4 5 7 8 10 11 12 13 15 16 17 18 18 18 18 19 19 19 20 21 22 22 24 25 23 20 20 22 24 28 31 32 32 30 28 25 25 25 24 22 22 22 23 23 23 23 24 23 22 23 24
2 3 4 3 4 5 5 4 2 2 5 7 7 6 7 7 6 7 8 7 6 5 5 6 8 8 6 7 8 6 5 5 5 4 4 5 6 7 9 10 11 12 13 14 14 14 15 16 17 18 19 19 18 17 18 20 21 22 22 22 21 22 22 23 26 28 29 31 31 29 26 24 24 24 23 21 21 22 22 23 24 25 23 23 23 23
1 1 4 3 3 3 3 3 3 6 7 7 8 8 8 8 7 6 7 7 6 7 7 7 8 8 7 6 7 7 6 5 5 4 4 4 5 7 8 9 10 11 12 13 13 13 13 14 15 16 17 18 18 17 15 16 17 18 19 19 20 21 22 24 25 26 27 28 30 30 28 25 23 23 24 23 21 20 20 21 22 22 21 21 21 20
1 2 4 3 2 3 5 5 5 8 8 7 8 7 7 8 8 7 7 8 8 8 9 9 8 7 5 5 6 6 5 4 4 4 3 3 4 5 6 7 9 10 11 11 12 12 12 12 13 14 15 16 18 19 17 15 14 14 15 16 16 17 19 21 23 24 25 26 27 27 27 26 24 22 23 24 23 21 19 18 18 19 19 18 18 18
1 2 3 4 5 6 6 7 7 8 9 8 8 7 6 7 9 9 8 9 9 9 9 9 9 8 7 7 6 6 5 4 4 4 4 3 3 3 4 5 6 6 7 8 9 11 12 12 13 14 13 12 14 17 18 17 16 15 14 15 15 15 17 18 19 20 22 23 24 24 25 25 24 22 21 21 22 22 21 18 16 16 16 16 16 17
2 3 4 6 6 4 4 5 6 6 6 5 6 8 7 7 9 10 9 8 8 8 8 8 9 9 9 9 9 7 5 4 5 5 5 4 4 5 4 4 4 4 4 6 8 9 11 12 12 14 14 12 12 14 15 16 16 16 15 15 13 12 14 16 16 17 18 19 21 22 21 22 22 21 19 17 18 20 21 20 18 16 16 15 15 15
3 4 4 4 4 4 5 5 5 6 7 6 6 7 7 7 9 10 9 8 8 8 9 8 7 7 6 6 9 9 7 6 7 8 6 5 6 6 5 5 5 5 4 5 6 7 8 9 10 12 14 14 14 13 12 12 13 13 14 13 11 10 10 12 13 15 15 16 17 18 18 18 18 19 18 16 15 15 17 18 18 17 16 15 14 13
Wind_Direction
138 145 184 188 197 195 188 173 162 161 143 146 117 86 274 293 292 281 270 283 291 269 267 221 215 250 260 268 289 329 202 171 165 151 178 192 195 201 188 179 186 192 198 195 210 217 201 182 180 179 179 180 185 189 189 188 190 196 199 199 199 202 208 208 205 204 201 199 198 198 200 208 214 215 212 213 216 219 219 218 219 219 215 212 213 215
118 171 217 213 200 188 180 175 153 128 110 107 130 287 297 272 267 273 267 301 294 184 270 241 186 246 254 272 311 12 127 176 174 172 189 203 207 210 188 183 182 182 190 178 192 210 188 161 163 171 175 179 184 186 185 185 188 193 197 199 200 204 208 213 213 206 200 200 200 199 202 208 212 212 210 211 214 217 217 217 217 216 212 211 213 214
112 209 233 219 190 161 139 140 130 120 117 107 120 146 290 266 278 291 284 305 306 175 264 233 169 239 271 307 344 21 296 243 205 185 189 197 202 210 204 193 170 168 173 139 126 146 153 152 160 169 176 184 187 183 180 184 188 192 197 200 203 208 210 213 216 209 201 202 203 202 204 206 208 209 210 212 212 214 216 216 215 214 212 212 213 213
170 242 235 193 147 150 162 135 120 108 109 134 154 147 244 263 287 296 292 316 334 237 244 154 154 271 329 9 18 3 322 316 311 259 229 209 209 221 219 115 96 124 118 112 128 142 152 158 164 172 179 185 186 177 174 186 194 197 201 203 207 212 215 215 214 208 203 201 201 201 205 208 208 209 212 214 214 215 217 216 216 215 213 213 214 213
222 243 201 133 137 166 188 182 137 137 236 235 199 173 192 242 220 225 281 324 335 339 30 90 59 321 349 33 24 349 351 12 3 348 351 335 316 345 33 62 74 90 109 137 149 147 155 162 168 175 181 183 181 172 179 195 200 200 205 208 209 214 220 219 211 205 204 201 197 198 201 204 205 206 209 210 212 217 218 216 215 214 213 214 215 215
240 236 121 118 150 164 176 216 177 161 189 282 232 190 188 218 232 256 312 353 15 359 4 76 70 301 327 30 20 349 6 16 11 18 13 342 339 14 62 85 89 98 123 145 143 148 152 154 164 173 179 183 184 181 190 202 203 201 208 208 205 210 216 215 207 207 213 208 200 198 197 196 197 197 202 204 207 213 215 215 215 215 214 215 217 218
233 192 145 145 158 155 174 223 215 159 144 270 235 181 179 206 218 243 294 50 72 316 334 73 114 238 325 9 2 346 5 21 24 25 20 7 3 29 83 107 115 121 131 134 138 148 145 150 157 160 178 189 189 189 198 206 204 203 209 208 203 206 209 209 206 206 214 219 211 207 207 207 205 202 204 207 209 212 214 214 215 217 216 217 218 219
178 167 168 157 146 153 179 223 210 156 131 237 238 153 154 187 190 189 152 104 189 237 330 11 110 127 335 324 337 345 359 29 36 31 24 24 24 35 54 58 78 107 125 134 142 146 145 154 154 160 185 194 188 191 202 204 203 204 209 208 207 208 210 211 209 208 212 219 220 218 217 217 214 210 208 207 207 211 214 214 214 215 214 215 216 217
163 165 180 168 148 166 199 203 178 148 144 243 235 148 155 178 170 168 128 103 303 55 331 314 35 102 290 287 334 5 30 35 38 37 27 27 29 36 45 46 44 45 52 91 126 137 145 153 160 175 190 193 187 193 201 202 202 205 209 207 206 209 212 214 213 210 212 217 222 222 220 219 216 211 208 205 205 209 213 215 214 212 211 212 213 216
193 186 178 158 153 200 219 197 159 157 187 247 224 130 98 92 114 118 107 112 49 55 235 269 310 120 256 299 348 8 22 22 26 37 35 33 37 37 40 44 46 45 41 46 63 72 117 153 168 186 193 185 180 187 192 198 203 206 209 208 205 209 212 214 214 212 213 215 219 222 221 218 213 206 202 200 202 207 212 216 216 213 211 212 213 215
268 213 153 151 180 208 218 189 163 178 189 195 169 127 69 37 46 54 66 97 83 12 247 253 202 117 217 296 358 359 340 354 12 36 39 36 39 37 36 37 39 44 45 45 51 50 61 148 178 197 202 171 114 84 116 186 210 211 213 216 213 215 218 219 216 213 215 217 220 224 223 219 212 203 197 196 200 206 212 217 220 219 214 212 212 213
321 10 172 221 213 198 196 184 179 193 187 104 113 134 125 337 19 31 356 51 102 246 261 248 127 100 154 265 351 338 346 26 30 33 37 40 42 38 36 35 33 34 34 35 37 36 38 36 218 229 250 23 34 24 28 10 289 250 236 236 233 230 230 233 229 219 218 221 224 227 227 222 214 205 199 199 202 208 212 217 221 221 217 213 212 213
320 243 252 281 237 175 146 189 204 180 169 125 107 99 119 203 24 45 297 42 150 245 255 222 111 79 162 251 356 330 3 31 34 33 35 47 56 53 48 42 36 33 29 28 26 21 25 13 360 349 350 22 37 29 22 8 345 319 281 261 254 250 245 252 255 237 226 224 225 227 228 222 211 204 209 212 210 211 214 218 222 224 220 213 212 213
313 289 295 301 266 183 141 155 172 156 170 168 152 125 131 127 100 198 266 147 201 251 242 228 104 75 244 265 5 4 20 32 46 46 40 53 64 64 61 56 51 45 32 25 26 22 22 16 7 3 6 21 36 38 33 13 355 342 316 288 273 267 261 264 272 266 250 233 223 226 229 221 215 219 226 223 214 211 212 215 221 228 227 219 215 212
188 284 260 196 235 188 160 180 180 157 154 177 165 133 141 148 140 192 207 164 196 238 273 297 58 143 190 187 40 49 39 40 62 63 60 62 62 64 63 60 60 56 45 33 29 24 19 16 13 10 12 13 14 22 27 4 350 346 332 311 293 287 285 282 282 279 271 237 201 215 237 234 230 229 228 221 213 215 217 213 212 217 225 226 222 215
158 234 249 232 233 177 176 195 160 131 132 213 140 105 137 178 144 134 181 172 173 158 0 351 62 23 156 122 82 92 89 68 73 72 67 60 53 54 53 49 50 48 44 39 32 28 22 18 17 15 14 13 9 12 10 345 336 336 331 319 304 304 309 308 303 283 264 200 202 240 247 240 228 223 224 223 221 223 224 219 214 210 212 219 220 215
133 251 275 286 275 222 191 185 163 154 165 157 115 147 193 168 125 116 195 203 112 129 212 299 123 83 119 126 115 124 110 95 91 74 63 57 49 51 49 44 43 40 39 37 32 30 26 25 24 19 16 15 14 15 12 356 337 333 334 326 309 301 302 316 323 291 249 233 241 247 248 242 228 222 227 228 227 225 221 221 219 211 207 213 216 209
142 260 284 228 241 257 197 145 109 137 142 120 163 190 155 86 94 108 148 11 53 134 243 319 136 164 178 158 157 141 120 114 108 78 64 57 51 53 49 42 36 32 33 29 27 27 24 25 25 21 20 21 22 20 18 14 358 342 337 332 318 304 296 302 309 295 268 249 246 246 244 237 227 227 231 231 230 227 219 216 213 207 207 210 209 202
127 277 288 250 225 273 44 88 57 3 66 124 167 164 110 117 173 93 136 137 105 156 253 355 59 184 177 170 168 152 132 121 104 72 63 58 50 47 40 33 25 23 23 17 16 17 15 19 20 19 20 21 22 20 17 20 14 359 351 345 334 320 304 286 284 287 275 248 247 252 247 237 225 225 230 231 230 229 222 213 206 203 204 203 199 197
120 120 283 277 257 299 32 73 170 268 359 66 98 88 84 138 160 157 150 150 148 171 188 50 6 242 209 215 179 151 135 124 112 89 72 59 49 41 34 29 21 18 16 10 10 6 4 9 12 17 20 19 18 16 16 17 13 6 3 0 355 339 320 291 275 281 277 253 246 250 252 247 235 226 227 227 225 226 221 209 202 201 201 198 195 194
96 125 239 288 325 40 98 227 192 184 173 113 100 121 218 95 120 152 123 114 135 151 160 133 238 262 246 249 187 150 134 126 124 112 88 63 54 45 35 31 21 13 11 8 7 3 359 359 1 10 18 20 19 17 15 12 7 5 4 2 359 347 328 302 276 268 267 252 236 235 241 243 238 231 225 220 219 221 216 207 203 200 196 195 195 192
150 143 182 280 354 49 250 279 216 174 153 146 149 165 171 138 121 130 197 286 110 116 158 156 178 266 264 206 116 119 114 111 111 110 98 68 58 49 36 31 23 14 8 2 2 3 359 355 355 2 13 20 22 17 12 7 2 360 358 356 352 340 326 312 289 269 263 251 234 232 236 236 237 234 223 216 218 218 213 207 202 196 190 190 191 189
141 113 136 243 323 238 264 308 11 125 103 96 104 95 118 129 125 132 184 245 87 90 128 116 108 275 273 110 94 85 90 89 85 93 96 71 55 48 35 30 25 17 8 360 1 3 360 357 357 3 10 15 15 11 6 1 358 356 352 349 345 337 329 320 303 282 273 261 244 239 239 237 237 231 215 212 215 213 210 206 199 193 188 186 187 189
99 100 114 225 316 307 290 328 16 63 79 80 44 34 76 128 136 141 168 178 131 140 131 79 76 260 267 98 97 89 84 79 68 60 60 55 48 39 32 26 20 15 8 1 358 0 2 4 6 8 8 7 5 2 359 356 353 352 350 345 342 338 334 329 317 297 282 270 256 246 237 231 226 216 206 208 209 206 205 202 196 192 189 186 188 190
134 122 107 112 61 349 329 345 357 9 46 71 19 354 358 58 104 120 123 84 105 176 145 117 164 230 134 104 98 91 88 83 70 49 37 34 33 30 30 24 15 12 7 1 358 360 5 7 5 4 2 1 1 357 355 354 351 349 346 343 341 337 333 332 327 315 293 274 265 253 237 225 216 204 203 209 206 201 200 196 192 191 189 187 189 187
117 109 114 131 147 170 186 227 247 260 51 43 13 3 4 38 104 131 123 92 135 189 115 123 172 166 130 121 107 99 98 92 80 57 35 26 25 22 23 22 15 10 5 1 357 356 4 6 3 0 359 0 360 355 354 356 354 349 346 345 344 340 335 330 323 316 298 275 267 260 244 230 220 208 208 214 209 198 194 194 191 188 185 185 185 181
107 76 88 127 143 180 188 207 233 142 95 62 359 359 3 359 43 108 116 143 169 147 57 204 164 144 149 148 121 106 100 95 86 66 42 29 19 14 17 21 16 9 3 359 356 355 2 5 2 0 0 1 359 356 358 360 356 350 347 348 349 347 344 340 327 313 302 283 267 259 248 236 230 218 211 215 212 197 190 192 189 183 181 181 179 178
102 50 9 80 80 76 121 82 42 59 83 88 38 357 360 12 39 82 99 173 151 126 134 224 155 142 152 144 118 113 106 97 92 76 54 37 19 12 17 20 17 10 3 0 360 359 2 3 2 1 1 1 360 356 358 0 357 352 349 350 352 353 353 350 340 322 308 297 280 265 253 244 239 225 209 207 205 192 187 191 186 180 179 178 176 177
106 51 344 68 63 42 43 52 66 80 79 67 57 25 13 37 61 78 75 290 162 142 172 164 142 133 130 116 108 109 104 105 106 95 74 50 32 25 25 25 20 9 2 1 356 352 357 360 0 2 3 2 360 355 353 355 355 353 352 352 355 358 358 355 349 335 318 307 294 277 263 250 237 222 206 196 190 184 185 187 184 180 179 175 174 178
105 59 0 79 73 41 21 16 55 89 90 55 42 33 29 56 72 75 69 58 69 94 130 130 120 98 85 104 106 98 94 104 105 91 73 51 34 29 28 25 20 10 3 357 346 342 356 3 3 5 5 1 358 356 354 354 355 355 355 355 357 0 1 359 355 346 332 317 300 279 262 251 232 215 201 187 180 179 182 183 180 179 179 176 177 182
88 102 322 69 71 27 10 31 54 80 93 71 38 24 22 43 62 63 63 67 66 78 101 110 109 95 82 106 103 96 92 82 70 66 64 49 31 32 28 19 16 13 6 355 348 353 3 5 2 1 360 357 356 357 356 356 358 360 359 359 359 1 4 5 3 359 352 335 311 278 249 243 224 201 188 179 173 174 180 180 177 178 180 178 179 184
72 115 118 66 76 23 4 70 63 64 80 71 38 16 11 21 52 61 52 47 90 125 119 113 121 141 145 126 106 91 80 75 66 59 63 51 33 32 26 15 13 13 9 3 1 2 2 359 355 352 353 356 357 358 358 357 360 2 2 0 0 4 9 13 12 10 7 357 339 302 243 233 209 182 179 178 170 169 174 174 175 180 180 173 175 180
98 133 138 98 100 148 216 49 25 29 66 61 10 349 347 26 79 70 42 28 49 130 133 133 146 135 133 134 120 98 80 73 64 55 55 51 42 35 25 17 14 12 12 7 4 3 356 350 350 349 351 357 359 360 0 1 2 2 3 4 7 12 17 19 19 17 15 11 4 351 258 217 188 170 173 175 168 166 169 169 173 179 175 168 171 174
96 119 131 118 112 139 231 348 24 45 146 244 316 329 336 94 93 80 55 38 47 84 108 105 111 118 125 132 124 111 94 74 59 50 42 38 39 30 21 20 16 13 11 4 1 359 353 351 353 353 357 1 3 4 7 10 10 8 11 14 18 21 22 21 22 22 20 18 15 8 332 205 178 167 165 165 162 162 163 163 167 170 167 165 166 165
98 94 97 73 97 128 115 35 68 201 217 230 331 14 60 90 94 87 70 54 66 91 103 105 113 119 116 111 108 106 100 88 73 57 40 33 35 28 24 21 18 14 9 3 360 354 353 355 355 355 359 2 4 9 15 18 18 15 18 23 25 26 25 24 25 25 24 23 22 20 24 138 162 157 152 151 152 153 152 153 156 157 156 157 159 158
123 114 100 70 80 119 116 97 146 213 223 56 350 13 49 64 82 82 67 52 64 96 107 109 114 116 113 113 113 110 112 103 82 66 49 41 39 35 28 23 19 10 360 360 358 352 354 358 357 358 1 3 9 17 21 23 22 19 22 29 30 28 28 28 27 25 24 25 25 25 42 90 116 126 132 136 139 139 139 142 145 147 147 145 145 144
122 125 109 72 61 121 119 101 99 143 222 210 47 42 58 24 338 38 76 76 80 116 122 121 125 129 126 125 126 132 138 116 75 53 39 40 42 40 34 28 22 9 2 7 7 4 6 9 11 13 13 14 18 22 24 27 27 26 28 33 32 30 32 32 27 24 24 26 29 29 41 81 101 103 114 123 126 128 132 135 136 138 139 136 132 130
91 125 138 121 82 106 110 103 122 180 213 175 140 143 135 165 271 279 98 103 129 147 141 135 138 142 140 140 150 168 172 121 50 14 21 33 34 32 30 26 25 22 18 15 14 14 17 19 22 25 28 28 26 24 27 32 33 34 34 34 33 33 34 32 27 25 25 27 33 37 43 71 97 100 102 112 118 122 127 130 130 131 132 130 127 124
58 61 100 103 96 128 125 133 177 199 201 136 142 189 238 264 266 259 90 112 152 156 151 141 142 150 155 156 167 185 197 203 214 258 28 34 27 24 26 24 25 28 29 26 21 17 18 23 30 35 37 35 28 25 29 35 39 40 37 35 36 37 36 33 29 29 30 32 40 46 49 64 88 100 102 106 112 119 122 124 125 126 125 121 121 120
43 27 57 99 128 140 122 119 201 205 160 129 219 277 294 291 275 142 163 213 156 152 155 149 149 158 166 167 173 191 242 222 180 147 70 50 37 33 32 28 27 28 31 32 29 28 30 33 36 38 37 33 29 29 32 38 43 44 39 38 40 38 36 36 37 38 39 42 48 53 56 62 75 89 99 104 108 111 114 115 116 117 113 107 108 113
32 26 63 115 123 117 112 111 283 270 179 159 270 290 293 295 247 161 205 184 137 140 149 151 153 159 166 170 162 134 28 69 106 108 85 59 46 39 35 39 44 43 39 37 35 37 39 39 40 41 38 35 36 36 36 41 46 44 41 42 42 38 36 41 45 46 47 49 51 53 59 66 72 79 89 100 108 108 109 111 111 110 109 104 102 105
63 37 41 90 113 124 119 107 71 282 179 124 288 284 278 258 171 166 146 107 117 122 119 124 138 139 128 114 107 107 96 86 90 91 74 54 49 45 39 43 49 46 42 41 40 39 40 40 41 42 39 38 40 39 39 43 44 42 43 44 41 39 42 47 49 49 49 50 51 52 56 66 75 81 87 97 107 110 110 113 116 115 116 114 107 104
134 95 61 74 115 115 95 93 130 227 178 19 317 281 252 178 151 130 103 91 99 103 97 93 101 113 114 109 106 109 103 91 88 88 78 60 51 51 46 46 47 42 38 38 37 37 39 38 38 38 37 38 41 40 40 42 40 39 41 41 40 45 50 51 51 50 49 50 50 51 55 63 72 83 89 96 105 110 112 117 121 124 125 123 116 108
293 145 139 164 158 126 139 157 196 248 268 289 279 157 100 91 114 118 111 99 93 98 101 97 92 99 112 115 112 107 103 97 91 89 86 71 56 53 51 49 47 44 41 39 38 39 40 39 36 37 38 39 40 41 42 42 42 41 39 38 41 49 53 54 54 52 50 49 49 49 51 57 66 77 86 92 100 106 111 116 120 120 120 121 120 116
2 107 112 99 81 95 120 162 227 270 307 31 65 79 82 83 91 102 106 104 101 102 106 108 105 102 107 113 112 105 101 100 96 91 86 76 65 60 58 56 53 50 48 47 46 45 44 41 38 35 35 34 36 39 43 45 45 44 41 41 46 50 52 55 57 56 54 52 51 49 50 54 59 67 77 86 93 96 100 107 111 110 111 114 116 115
141 114 92 98 119 103 68 49 51 65 64 67 68 69 75 79 85 96 100 101 103 103 106 112 116 116 115 115 114 110 110 111 107 102 96 88 77 71 69 64 57 53 50 47 47 46 43 42 40 36 33 31 31 37 44 48 50 48 45 46 49 51 53 55 57 59 59 56 54 50 48 52 58 62 68 77 87 92 96 101 106 108 110 112 112 111
213 112 89 103 151 136 69 49 54 66 74 80 79 76 75 75 75 84 96 102 105 105 107 112 116 119 120 118 118 121 125 125 117 107 96 93 87 78 74 69 60 54 49 42 42 42 38 36 36 34 31 29 30 34 41 46 49 49 47 47 48 50 54 56 56 56 57 58 58 54 50 49 55 62 66 71 79 91 99 105 111 114 115 115 116 116
158 109 97 93 97 89 94 108 92 72 68 72 79 83 86 85 84 83 89 100 104 102 106 110 112 114 116 116 121 127 127 125 126 123 113 106 102 91 84 79 71 66 59 50 48 47 42 39 39 37 32 31 35 39 42 42 43 42 42 45 47 49 53 56 57 57 55 55 57 57 55 52 52 57 64 68 73 82 92 102 113 117 116 117 122 124
149 98 104 110 102 91 100 119 112 86 68 65 78 89 93 96 100 97 95 102 107 106 107 106 106 112 121 124 129 131 131 140 146 139 135 137 135 126 112 96 82 76 70 62 59 59 55 51 49 46 42 40 42 45 45 44 43 42 39 40 43 49 55 58 61 61 58 55 54 53 52 52 52 54 60 67 72 75 80 89 103 115 119 121 125 126
101 107 120 122 121 124 134 140 131 108 91 88 99 104 103 105 108 106 104 105 104 107 108 102 100 108 121 133 142 140 130 141 156 154 155 168 172 168 161 144 122 106 85 69 67 69 64 57 52 49 48 50 52 52 51 50 48 44 40 38 39 46 54 58 59 61 62 60 57 54 51 49 49 52 56 65 74 78 80 83 90 103 114 122 126 126
115 141 148 126 111 123 132 134 125 111 110 118 121 113 108 108 107 107 110 110 108 114 118 114 110 107 105 123 147 152 148 151 163 164 166 178 184 176 169 161 145 123 96 77 73 71 67 63 58 52 51 53 54 54 56 56 52 46 42 41 42 48 54 55 56 59 63 64 63 61 58 54 50 50 52 60 71 81 87 88 89 93 102 112 121 126
Height
754 762 767 767 766 766 765 765 765 769 772 774 777 778 778 780 778 769 764 756 754 760 758 757 762 757 753 751 750 753 755 756 757 758 760 760 760 760 762 765 765 766 766 766 766 767 769 770 771 773 774 776 777 778 780 781 781 782 783 784 785 786 787 787 787 789 791 793 795 796 797 798 799 800 802 803 804 806 807 809 810 812 813 815 816 817
755 765 767 762 762 762 763 764 764 769 773 774 776 778 778 782 778 766 763 758 756 764 758 755 763 759 753 751 751 756 759 758 756 757 759 759 759 759 761 763 764 765 765 766 768 770 772 773 773 774 774 775 776 778 780 781 781 782 783 783 784 785 785 785 785 786 787 789 791 793 794 795 797 798 800 801 802 804 806 808 810 811 813 814 815 816
763 767 762 759 763 764 765 767 768 770 773 775 777 780 781 779 775 765 761 758 758 763 758 755 762 759 755 755 755 760 761 758 754 753 754 755 757 759 759 761 763 765 766 768 771 772 772 772 773 774 774 774 776 778 780 781 781 782 782 783 783 784 784 784 784 785 786 789 791 793 794 796 798 799 801 802 803 804 806 807 809 811 812 813 814 815
769 764 757 760 765 764 766 769 771 772 774 776 777 781 782 777 776 772 764 758 758 762 758 755 761 758 757 760 761 763 762 758 757 755 754 755 757 758 759 762 766 768 770 773 773 772 771 771 772 773 774 775 777 779 781 781 781 782 783 783 784 785 786 786 787 788 789 790 792 794 796 798 799 800 802 803 804 805 806 807 809 810 812 812 813 814
764 757 754 760 764 763 764 768 770 773 774 776 774 777 780 774 774 774 768 762 758 761 759 757 766 764 760 767 771 769 767 764 762 759 759 760 759 760 763 765 768 771 773 774 772 771 771 771 772 774 775 777 779 781 781 780 779 780 782 783 785 786 787 789 791 793 793 793 793 794 796 798 799 800 802 802 804 805 806 807 808 810 811 812 812 813
759 754 753 759 764 764 766 767 768 770 774 775 769 770 773 770 771 771 771 770 766 767 764 763 777 778 770 774 778 775 775 775 772 768 768 767 764 764 767 768 769 771 772 772 771 771 771 772 774 776 778 779 781 781 780 779 778 780 781 782 783 784 785 788 791 794 796 796 795 795 795 795 797 799 800 801 803 804 805 807 808 809 810 811 812 812
756 752 751 757 762 765 767 768 767 768 775 776 765 761 766 767 771 772 771 772 774 776 770 768 778 782 776 775 778 779 782 784 780 777 777 774 770 767 768 770 769 770 770 770 771 770 772 774 776 778 779 779 780 781 780 779 779 780 781 782 783 783 783 785 788 791 794 796 796 794 793 794 795 797 798 800 802 802 804 806 807 808 809 810 811 811
750 751 753 755 759 765 768 768 765 765 774 773 757 755 763 766 770 772 768 769 773 774 771 769 769 777 783 780 780 783 787 789 786 782 782 779 776 774 772 773 772 771 770 770 770 771 772 774 776 778 778 777 778 779 778 778 779 779 779 781 782 783 784 784 785 787 789 791 792 792 792 793 793 795 796 798 800 802 803 805 806 807 808 809 810 811
745 750 753 754 760 765 763 759 759 762 769 762 749 753 760 761 766 766 765 769 775 776 776 774 769 779 793 786 782 786 788 792 791 787 786 783 780 779 777 777 776 775 774 773 773 773 774 775 776 776 776 776 777 777 777 777 778 778 778 778 780 781 781 781 781 782 783 784 786 788 789 791 792 794 796 797 800 802 803 804 805 805 806 808 809 810
743 744 745 750 758 758 752 751 753 758 761 751 746 756 759 761 766 765 767 769 776 783 782 777 772 781 796 793 790 793 792 796 796 790 789 785 783 781 780 780 779 779 778 778 778 778 778 778 777 777 777 778 779 778 779 779 780 780 780 780 780 780 778 776 776 776 778 780 782 783 785 786 789 792 794 797 799 801 801 802 803 804 805 806 808 809
742 739 740 745 748 745 742 747 749 749 750 746 749 758 760 765 766 768 774 771 780 791 781 775 776 778 790 797 800 802 798 799 798 794 792 788 786 784 783 783 782 782 782 781 782 782 781 781 780 779 779 781 782 782 783 784 785 784 784 783 781 780 778 775 774 773 775 779 780 781 782 784 787 790 793 795 797 799 800 801 801 802 803 804 806 808
744 743 743 738 736 737 739 746 748 746 746 747 753 758 764 771 771 774 780 777 790 797 780 777 781 778 789 801 803 804 799 797 797 797 797 793 791 789 787 787 786 786 786 785 785 785 784 784 782 782 782 785 787 787 788 788 789 788 787 786 783 780 780 779 777 774 773 777 780 782 784 786 788 790 792 794 796 797 798 799 800 801 802 803 804 806
747 745 742 736 732 734 740 750 753 751 752 753 756 760 770 783 785 788 791 789 794 792 781 784 782 783 801 808 806 804 799 798 798 798 800 797 795 792 790 790 789 789 789 788 788 787 787 786 785 785 786 789 791 791 791 790 790 790 788 786 784 781 781 781 781 779 776 777 780 784 787 789 791 793 794 795 795 796 797 798 800 800 801 802 803 804
753 747 742 739 736 731 737 750 754 756 758 757 756 759 771 787 796 801 806 805 798 787 784 786 783 793 809 807 804 805 801 799 797 798 801 799 797 794 793 792 791 792 791 791 790 789 788 787 786 786 786 788 791 792 792 791 791 790 788 787 784 782 782 782 783 784 783 782 784 788 791 792 793 793 793 794 795 795 794 795 798 801 802 801 802 803
761 758 744 738 737 730 733 739 740 745 753 755 753 754 763 775 785 795 798 796 792 787 787 787 789 802 809 804 803 803 802 799 795 798 801 799 798 795 793 792 792 794 794 793 792 791 790 789 788 788 787 788 789 789 791 791 791 789 788 787 785 783 784 783 784 785 786 785 787 791 793 792 790 788 790 793 793 792 790 789 792 796 800 802 802 803
762 759 738 730 732 729 730 731 730 737 750 758 755 754 760 760 765 782 791 787 785 787 794 799 803 809 807 804 804 802 802 801 797 800 801 800 800 797 795 796 795 795 795 795 795 793 792 791 789 789 789 788 788 788 789 788 788 788 787 786 785 785 784 784 784 784 785 786 788 788 788 787 787 788 790 793 791 789 789 789 789 791 795 799 801 802
759 754 736 730 731 726 727 727 726 733 745 757 757 755 756 752 754 774 791 794 788 787 801 811 811 812 810 807 806 804 803 803 801 802 803 802 802 800 800 800 799 799 798 798 798 797 796 794 793 792 790 789 788 787 787 786 786 786 786 785 784 784 784 784 783 783 783 784 784 783 783 784 787 787 788 789 789 789 788 789 790 791 793 796 799 800
752 750 737 732 731 726 724 725 726 727 734 749 755 749 751 756 757 765 780 792 792 791 805 814 811 811 812 809 807 805 804 804 804 804 804 804 803 803 804 803 803 803 801 801 800 799 799 797 796 794 792 790 789 788 787 786 786 786 786 785 784 783 784 783 783 781 781 780 778 778 779 782 786 787 786 787 788 789 788 787 788 789 791 794 797 799
747 751 741 733 733 728 723 728 734 732 728 735 741 739 747 762 766 768 776 786 791 797 806 812 813 811 809 808 806 804 804 805 806 807 807 807 806 806 807 807 806 805 804 804 803 802 801 800 798 797 795 793 791 790 789 788 787 787 786 785 784 783 783 782 781 780 779 778 776 775 776 779 784 786 785 786 787 788 787 786 787 788 790 792 794 797
743 753 748 735 733 731 728 734 743 743 735 733 737 742 747 755 761 766 772 776 782 794 804 810 813 810 806 806 803 801 803 806 808 810 810 810 811 811 811 811 810 809 809 808 806 806 804 803 802 800 798 796 794 793 791 789 788 787 786 784 783 783 783 782 781 779 778 778 776 774 775 777 780 782 783 784 786 787 786 786 787 788 789 791 793 795
742 753 752 739 733 737 739 739 739 740 740 739 743 750 751 752 756 761 769 773 773 782 798 806 809 808 805 803 801 799 802 806 809 811 812 813 815 816 816 816 815 814 813 811 810 809 807 806 804 802 800 799 796 794 792 790 789 787 786 784 782 782 782 781 781 779 778 777 776 774 774 775 778 780 781 783 785 786 786 787 787 788 789 791 792 794
743 751 752 745 741 745 746 740 733 732 736 739 743 748 751 753 757 764 774 778 770 775 792 794 796 807 807 801 801 802 803 806 809 811 813 816 818 819 820 819 819 818 816 815 813 811 810 808 805 803 801 799 797 795 793 791 790 788 786 785 783 782 781 779 778 778 777 776 775 774 773 774 776 778 780 783 784 785 785 786 787 787 789 791 792 794
739 746 749 750 751 752 747 741 737 734 735 740 746 751 753 751 753 760 771 775 773 782 793 788 790 805 808 801 803 806 806 808 811 813 816 819 820 822 822 821 821 820 818 817 815 813 812 809 807 804 801 799 798 796 795 793 791 789 787 785 784 783 781 780 779 778 777 776 775 774 774 774 776 777 779 781 782 783 784 785 786 786 788 790 792 794
738 746 751 753 756 752 742 737 738 736 737 744 751 757 758 754 752 754 761 766 771 783 788 785 796 808 807 804 807 809 810 812 815 818 819 821 822 823 823 823 823 822 821 820 817 815 813 810 808 805 802 801 799 797 795 793 791 790 788 786 784 783 782 781 780 779 778 776 775 773 773 773 774 775 776 777 778 781 782 783 784 785 787 789 791 794
741 750 752 756 766 765 755 749 746 743 746 754 761 763 762 760 756 755 762 765 771 785 784 780 797 811 807 808 810 811 814 817 820 822 821 822 824 824 825 825 824 824 823 822 820 817 814 811 809 807 805 803 800 798 795 793 791 789 788 786 784 783 782 781 780 779 777 776 774 772 771 771 772 773 774 774 775 778 780 781 783 785 786 788 791 793
744 756 754 754 767 774 768 764 759 756 758 763 767 766 765 765 759 756 762 763 770 789 789 782 798 812 810 810 813 814 818 820 822 825 824 824 825 825 826 826 825 825 824 823 821 818 815 813 811 808 806 804 801 799 796 793 791 789 787 785 783 781 780 779 778 777 775 774 773 772 771 771 771 772 774 773 774 776 779 781 783 784 785 788 790 791
746 762 762 756 758 761 761 764 764 761 761 765 770 769 768 771 767 760 759 760 769 788 793 790 797 806 809 812 814 818 821 822 825 827 827 827 826 827 828 827 827 827 825 824 823 820 817 815 812 810 808 805 803 800 797 794 791 789 787 785 782 780 778 776 775 774 773 772 772 771 771 771 771 771 773 774 775 778 780 782 784 784 786 788 789 791
745 760 766 765 766 766 767 769 769 766 767 773 776 775 775 774 767 761 763 769 773 777 785 794 797 799 807 814 817 822 824 825 827 829 829 829 828 829 829 829 829 828 826 825 824 822 820 817 815 813 810 807 804 802 799 796 792 790 788 785 782 779 777 775 773 772 770 770 769 770 770 770 770 771 772 774 776 779 781 784 785 785 786 788 790 792
749 763 768 770 775 776 774 774 773 773 780 787 786 784 785 781 773 772 781 787 779 768 773 790 798 802 811 818 821 825 826 827 829 829 829 830 829 830 830 830 831 830 828 827 826 824 822 819 817 814 811 808 806 803 801 797 794 791 788 785 783 780 777 774 772 771 769 768 768 768 768 768 769 770 770 772 774 778 780 782 785 786 787 788 790 793
752 768 773 772 776 780 780 779 777 776 782 789 792 792 792 790 787 787 790 791 783 776 779 792 804 813 821 823 825 828 829 830 830 829 829 831 830 830 831 833 834 833 831 830 828 826 823 820 817 814 812 810 807 805 803 799 796 792 789 786 783 780 778 775 772 770 768 767 767 767 766 766 766 767 769 770 773 775 778 780 783 786 787 789 791 794
750 768 776 772 777 785 787 786 784 782 784 789 794 796 794 793 793 792 793 792 791 793 799 803 811 821 827 828 829 830 831 832 832 831 832 832 832 832 833 834 835 834 834 832 829 825 822 820 818 816 814 812 810 807 805 801 799 795 791 788 784 781 779 776 773 770 768 767 766 765 765 764 765 766 768 770 771 773 776 778 781 784 787 788 790 793
750 768 776 772 777 788 790 789 790 788 785 788 795 800 798 795 796 797 798 797 795 801 808 808 810 820 828 829 831 832 832 833 835 835 834 833 833 834 835 836 836 835 834 832 829 826 824 823 822 819 817 815 812 810 807 804 801 798 795 791 787 784 780 777 775 772 769 767 766 765 764 763 764 767 769 770 771 772 775 776 779 784 785 786 789 792
755 762 768 768 775 789 791 788 788 785 780 786 799 806 803 800 799 801 803 803 800 801 805 805 810 821 828 829 831 833 834 835 837 837 836 835 836 836 837 837 836 835 834 833 831 829 828 827 825 823 821 818 815 813 810 807 804 801 798 795 791 787 783 780 777 774 771 768 767 766 765 764 765 766 768 770 770 772 774 776 779 783 784 785 788 791
759 758 763 767 773 788 792 786 785 784 784 795 807 808 804 802 803 806 811 812 809 808 810 814 820 827 829 830 832 835 837 839 840 840 838 838 838 839 838 838 837 836 835 834 833 832 830 828 827 825 823 821 818 816 813 810 806 803 801 797 794 790 787 783 780 776 774 771 769 767 766 765 765 766 767 769 770 771 774 777 780 783 784 785 788 790
761 760 767 772 776 788 793 786 783 788 796 806 811 807 805 806 807 811 816 818 817 816 819 822 826 830 832 834 836 838 840 842 841 841 841 841 840 840 840 838 838 837 837 836 835 833 832 830 828 827 825 823 821 818 815 812 809 806 803 799 796 793 790 787 783 780 777 775 773 771 769 768 768 767 767 769 771 773 775 778 781 785 786 787 787 789
759 761 769 779 784 791 793 788 788 798 808 812 810 808 808 808 808 810 816 822 822 821 823 826 831 834 835 837 839 840 841 842 841 842 843 842 842 841 841 840 839 839 838 837 836 835 834 832 830 829 827 825 823 820 817 814 812 809 806 802 799 796 793 790 786 783 781 779 777 775 773 771 772 771 769 769 771 774 777 780 783 786 788 787 787 789
757 760 768 780 789 792 795 799 802 807 810 810 811 814 815 815 814 812 816 823 825 823 824 829 834 836 837 839 841 841 841 841 841 844 844 842 842 842 841 841 840 840 840 838 837 837 835 834 832 830 828 827 824 822 819 817 815 812 808 805 802 800 796 793 790 788 785 783 781 780 778 775 775 776 774 772 774 777 780 783 785 787 789 789 788 790
759 760 762 773 788 793 795 804 809 805 801 805 813 817 816 817 818 814 815 822 826 825 825 829 833 836 839 840 841 842 841 837 838 844 845 844 843 843 842 842 841 841 840 839 838 837 836 834 833 831 829 828 826 824 822 819 817 814 811 808 805 802 799 796 795 793 790 788 786 784 783 780 778 779 779 778 779 781 784 786 788 789 791 792 791 792
764 767 766 772 787 791 788 795 801 799 801 809 815 816 815 815 817 813 810 817 825 826 825 828 832 836 838 839 840 842 840 834 837 845 847 844 845 844 843 843 842 841 841 840 839 838 837 836 834 832 830 828 827 826 824 822 819 816 813 811 809 805 802 801 800 798 795 793 790 789 788 785 782 782 783 784 784 785 786 788 790 793 795 796 796 795
766 769 770 774 784 788 789 796 801 802 808 815 816 816 815 814 814 808 802 810 823 826 824 827 831 834 837 838 839 841 839 835 838 846 846 845 846 845 844 844 843 842 841 841 840 839 838 836 834 832 831 830 830 828 826 824 821 818 817 815 812 809 808 807 805 803 800 797 795 793 792 790 788 787 788 789 790 790 790 792 794 796 798 800 799 798
777 779 780 782 787 791 795 804 807 806 812 817 817 817 816 812 809 805 803 812 822 824 824 827 830 832 835 836 837 841 842 840 841 845 846 846 846 845 845 845 844 843 843 842 841 840 838 837 836 834 833 833 832 830 828 826 823 821 820 817 815 814 814 812 809 807 804 801 799 798 797 796 794 793 792 793 793 794 795 797 798 800 802 804 803 801
784 789 788 789 794 798 803 808 806 804 812 819 818 817 814 809 806 808 813 819 823 824 826 828 829 832 835 837 839 842 843 843 843 845 846 847 847 847 847 846 845 845 844 843 842 840 839 838 837 836 836 835 833 832 830 828 826 825 823 820 819 819 818 816 813 811 808 806 804 803 801 800 799 798 797 797 797 797 799 800 800 802 805 807 808 806
793 794 795 800 805 804 805 807 801 799 811 820 817 813 812 810 810 815 820 824 825 826 829 831 833 835 836 839 843 844 844 845 846 847 848 848 848 848 848 847 847 846 845 844 843 842 841 840 839 838 838 837 835 834 832 830 829 828 825 823 823 823 821 818 816 814 812 810 809 808 807 805 803 802 802 802 802 801 801 802 803 805 807 809 809 809
801 799 801 810 812 802 798 804 807 809 817 821 816 813 813 814 816 818 821 825 828 830 831 834 837 838 838 841 844 845 846 847 848 848 849 849 849 849 849 849 848 847 847 846 845 844 842 842 841 841 841 839 838 836 835 833 832 831 828 827 827 825 823 822 819 817 815 814 813 812 812 810 808 808 807 807 806 805 805 806 807 808 809 810 811 812
803 803 802 810 817 810 807 814 820 821 821 818 816 817 817 817 819 820 822 827 830 832 833 836 839 841 841 843 845 847 848 849 849 850 850 850 850 850 850 850 850 849 849 848 847 846 845 844 844 844 843 842 841 839 837 836 835 833 832 831 830 828 826 825 822 820 819 818 817 816 816 815 813 811 811 810 810 809 808 809 809 810 812 813 814 816
807 806 804 810 817 816 817 822 823 821 820 819 819 820 820 821 823 824 825 829 832 833 835 837 839 842 843 844 846 848 850 850 851 852 851 851 852 852 851 852 851 851 851 850 849 849 848 847 846 845 844 844 843 842 841 839 838 837 836 835 833 831 830 828 826 824 823 822 821 821 820 819 817 816 815 814 813 812 812 812 812 813 816 818 818 820
806 804 806 811 814 813 819 825 825 823 823 823 822 823 824 826 827 827 828 831 833 835 837 838 840 843 844 845 847 849 851 851 852 853 853 853 853 853 853 853 853 853 853 852 852 851 850 850 849 847 847 847 846 845 843 842 841 840 839 838 836 835 834 832 830 828 827 826 825 824 824 823 822 820 819 818 817 817 817 817 818 819 820 821 822 823
804 804 808 814 816 816 822 827 827 826 826 825 825 827 828 829 830 831 832 834 835 837 839 840 842 844 845 847 849 850 852 853 853 854 854 854 854 855 855 854 854 854 854 854 854 853 853 852 851 850 849 849 848 847 846 844 843 843 841 840 839 838 837 835 834 833 832 830 830 829 828 828 826 825 823 822 822 821 821 822 822 822 823 824 825 826
802 805 809 814 819 822 825 827 827 827 830 831 830 831 831 831 832 834 835 836 838 839 841 842 844 845 847 848 850 851 852 854 854 855 855 855 855 855 855 855 855 855 855 856 856 855 855 855 854 853 852 851 850 849 848 847 846 845 843 843 842 840 839 838 837 836 835 834 834 833 832 831 830 829 828 827 827 826 826 826 826 825 826 827 828 829
805 810 813 814 818 821 824 824 823 824 831 835 834 833 834 834 834 835 837 839 840 841 842 844 845 847 848 850 851 852 853 854 855 856 856 856 856 856 856 856 856 856 857 857 857 857 857 856 856 855 855 854 853 851 850 849 848 847 846 845 844 843 842 841 840 839 838 837 836 835 835 834 833 833 832 832 831 831 830 829 829 829 829 830 831 832
805 810 811 810 814 818 821 822 822 823 830 836 835 834 835 836 836 838 840 841 842 844 844 845 847 848 850 851 852 853 854 855 856 856 857 857 857 857 857 857 857 857 858 858 858 858 858 858 858 857 856 855 855 853 852 851 850 849 848 847 845 845 844 843 842 841 840 839 839 838 838 838 837 837 836 835 835 835 834 833 833 833 833 833 834 835